[[{"header":{"parameterUnit":"m.s-1","parameterCategory":1,"la1":30.2991,"la2":30.254,"lo1":-89.0895,"lo2":-89.0444,"dy":0.0017,"dx":0.0017,"nx":28,"ny":28,"refTime":"2024-07-27T03:00:00:Z","depth":0,"parameterNumber":2,"parameterNumberName":"U-component_of_WINDS"},"data":[0,0,0,0,0,0,0,0,0,0,0,0,0,0,0,0,0,0,0,0,0,0,0,0,0,0,0,0,0,0,0,0,0,0,0,0,0,0,0,0,0,0,0,0,0,0,0,0,0,0,0,0,0,0,0,0,0,0,-2.168,-2.1681,0,-2.1721,-2.1721,-2.1721,-2.1663,-2.1661,-2.1659,-2.1657,-2.1702,-2.1705,-2.1708,0,0,0,0,0,0,0,0,0,0,0,0,0,-2.1553,-2.1556,-2.168,-2.1681,-2.1681,-2.172,-2.1721,-2.1722,-2.1663,-2.1661,-2.1658,-2.1656,-2.1701,-2.1704,-2.1708,0,0,0,0,0,0,0,0,0,0,0,0,0,-2.1602,-2.1557,-2.168,-2.1656,-2.1655,-2.172,-2.1721,-2.1722,-2.1664,-2.1661,-2.1657,-2.1654,-2.17,-2.1704,-2.1709,-2.18,0,0,-2.1723,-2.1725,0,0,0,0,0,0,0,0,-2.16,-2.1607,-2.1659,-2.1658,-2.1656,-2.1683,-2.1693,-2.1748,-2.1664,-2.166,-2.1657,-2.1653,-2.1698,-2.1703,-2.1718,-2.1802,-2.1804,-2.1724,-2.1726,-2.1728,-2.173,0,0,0,0,0,0,0,-2.1596,-2.1605,-2.1696,-2.166,-2.1658,-2.1644,-2.1648,-2.1703,-2.1697,-2.1661,-2.1656,-2.1662,-2.1697,-2.1713,-2.1718,-2.1805,-2.1723,-2.1728,-2.1731,-2.1732,-2.1965,-2.1968,0,0,0,0,0,0,-2.1595,-2.1603,-2.1695,-2.1697,-2.162,-2.1649,-2.1653,-2.1678,-2.1696,-2.1695,-2.1664,-2.1659,-2.1707,-2.1713,-2.172,-2.1828,-2.1728,-2.1733,-2.1736,-2.1962,-2.1966,-2.197,0,0,0,0,0,0,-2.1593,-2.1604,-2.1693,-2.1649,-2.1659,-2.1655,-2.1683,-2.168,-2.1697,-2.1699,-2.1697,-2.1682,-2.1704,-2.1713,-2.178,-2.1829,-2.1735,-2.1739,-2.1958,-2.1963,-2.1968,-2.2045,0,0,0,0,0,0,-2.159,-2.1604,-2.1639,-2.165,-2.1662,-2.1753,-2.1686,-2.1683,-2.1704,-2.1698,-2.1715,-2.1715,-2.1703,-2.1773,-2.1785,-2.1833,-2.1743,-2.1954,-2.196,-2.1966,-2.2039,-2.2052,-2.2064,0,0,0,0,0,-2.1585,-2.166,-2.1641,-2.1652,-2.1705,-2.1756,-2.1763,-2.1746,-2.1709,-2.1744,-2.1744,-2.1714,-2.182,-2.1781,-2.1793,-2.1844,-2.1951,-2.1958,-2.1966,-2.2033,-2.205,-2.2064,0,0,0,0,0,0,-2.1657,-2.1661,-2.164,-2.1721,-2.1738,-2.1746,-2.179,-2.1765,-2.1795,-2.1788,-2.1766,-2.1771,-2.1843,-2.1849,-2.1805,-2.1932,-2.1879,-2.189,-2.1926,-2.1942,-2.1955,-2.1953,-2.1747,0,0,0,0,0,-2.1681,-2.1722,-2.1724,-2.1795,-2.1804,-2.1796,-2.1817,-2.1802,-2.182,-2.1828,-2.1834,-2.1853,-2.1891,-2.1916,-2.1951,-2.2038,-2.2041,-2.2078,-2.2091,-2.2102,-2.2112,-2.2158,-2.2175,-2.1994,-2.1994,-2.1994,0,0,-2.1734,-2.1741,-2.1769,-2.1809,-2.1821,-2.1864,-2.1803,-2.1851,-2.1883,-2.1836,-2.19,-2.1904,-2.1924,-2.2001,-2.2035,-2.2009,-2.2162,-2.2111,-2.212,-2.2125,-2.2167,-2.2184,-2.22,-2.1999,-2.1999,-2.1998,0,0,-2.1852,-2.1861,-2.1921,-2.1933,-2.1951,-2.1944,-2.1958,-2.1969,-2.197,-2.2032,-2.1998,-2.2035,-2.21,-2.2115,-2.2132,-2.2251,-2.2225,-2.2262,-2.2332,-2.2376,-2.239,-2.2403,-2.2446,-2.2462,-2.2272,-2.2272,-2.2272,0,-2.1916,-2.1978,-2.1955,-2.2005,-2.2024,-2.198,-2.2041,-2.2054,-2.2083,-2.2097,-2.2066,-2.2145,-2.2156,-2.2236,-2.2264,-2.2278,-2.2294,-2.2262,-2.239,-2.2402,-2.2414,-2.2455,-2.2471,-2.2277,-2.2276,-2.2276,-2.2275,0,-2.2056,-2.2099,-2.2145,-2.2172,-2.2196,-2.2251,-2.2236,-2.2262,-2.2244,-2.224,-2.2304,-2.2314,-2.2349,-2.2366,-2.235,-2.2444,-2.2427,-2.2393,-2.234,-2.2436,-2.2474,-2.249,-2.2284,-2.2282,-2.228,-2.2279,0,0,-2.2225,-2.2235,-2.2253,-2.2264,-2.2278,-2.2312,-2.2363,-2.2396,-2.2419,-2.2439,-2.2483,-2.2537,-2.2505,-2.2524,-2.2508,-2.2547,-2.2641,-2.2508,-2.2508,-2.2534,-2.2745,-2.2772,-2.279,-2.2621,-2.2624,-2.2627,-2.2743,0,-2.2344,-2.2433,-2.2412,-2.2501,-2.254,-2.2497,-2.2542,-2.2556,-2.2553,-2.2586,-2.2582,-2.2621,-2.2576,-2.2587,-2.2623,-2.2622,-2.2683,-2.2613,-2.2664,-2.2666,-2.2663,-2.281,-2.2839,-2.2949,-2.2758,-2.2761,-2.2762,0,-2.2496,-2.2519,-2.2611,-2.2617,-2.2633,-2.2674,-2.2701,-2.2733,-2.2747,-2.2741,-2.276,-2.2736,-2.2787,-2.273,-2.2801,-2.2753,-2.2772,-2.2774,-2.2778,-2.2784,-2.2722,-2.2823,-2.2984,-2.3001,-2.2786,-2.2784,-2.2782,0,-2.2611,-2.2666,-2.2728,-2.2738,-2.2746,-2.2776,-2.2781,-2.2791,-2.2811,-2.2835,-2.2847,-2.2877,-2.2894,-2.2917,-2.2901,-2.2861,-2.2975,-2.2917,-2.2973,-2.2973,-2.3002,-2.3001,-2.317,-2.301,-2.3009,-2.3009,-2.3009,0,-2.2748,-2.2807,-2.278,-2.2818,-2.2882,-2.2856,-2.292,-2.2919,-2.2928,-2.2966,-2.2929,-2.2966,-2.2941,-2.2975,-2.2963,-2.3023,-2.3031,-2.3028,-2.3025,-2.3033,-2.3034,-2.3048,-2.3041,-2.3013,-2.3012,-2.3011,-2.3011,0,-2.289,-2.2874,-2.2939,-2.294,-2.2941,-2.2988,-2.2989,-2.3024,-2.3016,-2.3064,-2.3074,-2.3062,-2.31,-2.3084,-2.3125,-2.3116,-2.3194,-2.3179,-2.319,-2.3187,-2.3244,-2.324,-2.3431,-2.3455,-2.3277,-2.3278,-2.328,0,-2.298,-2.3024,-2.3028,-2.3049,-2.3056,-2.3092,-2.3111,-2.3086,-2.3108,-2.3125,-2.3158,-2.3192,-2.3219,-2.3281,-2.3276,-2.3306,-2.3294,-2.3358,-2.3298,-2.3305,-2.3297,-2.3295,-2.33,-2.3372,-2.3374,-2.3375,-2.3377,0,-2.3142,-2.313,-2.316,-2.3185,-2.3209,-2.3228,-2.3244,-2.3264,-2.3239,-2.3266,-2.3303,-2.3323,-2.3362,-2.3397,-2.3423,-2.3428,-2.3399,-2.3395,-2.341,-2.342,-2.3425,-2.3424,-2.3225,-2.3392,-2.339,-2.3389,-2.3388,-2.3388,-2.3262,-2.3298,-2.3306,-2.3338,-2.3347,-2.3362,-2.3395,-2.3389,-2.3419,-2.3449,-2.3431,-2.3475,-2.3485,-2.3517,-2.3525,-2.3559,-2.3534,-2.3555,-2.3561,-2.3567,-2.3575,-2.3417,-2.3563,-2.3563,-2.3562,-2.3562,-2.3562,0,-2.3423,-2.3424,-2.3454,-2.3477,-2.3502,-2.3469,-2.3484,-2.3508,-2.3546,-2.3557,-2.3582,-2.3624,-2.3656,-2.3652,-2.3682,-2.3709,-2.3697,-2.3718,-2.3717,-2.3719,-2.3596,-2.358,-2.3728,-2.3728,-2.3728,-2.3728,-2.3728,-2.3728,-2.351,-2.3569,-2.3558,-2.3621,-2.3622,-2.3663,-2.3674,-2.3688,-2.3696,-2.3744,-2.377,-2.3766,-2.3771,-2.3799,-2.3827,-2.3825,-2.3838,-2.3865,-2.3859,-2.3744,-2.3728,-2.3712,-2.3698,-2.3868,-2.3868,-2.3979,-2.398,-2.3981]},{"header":{"parameterUnit":"m.s-1","parameterCategory":1,"la1":30.2991,"la2":30.254,"lo1":-89.0895,"lo2":-89.0444,"dy":0.0017,"dx":0.0017,"nx":28,"ny":28,"refTime":"2024-07-27T03:00:00:Z","depth":0,"parameterNumber":3,"parameterNumberName":"V-component_of_WINDS"},"data":[0,0,0,0,0,0,0,0,0,0,0,0,0,0,0,0,0,0,0,0,0,0,0,0,0,0,0,0,0,0,0,0,0,0,0,0,0,0,0,0,0,0,0,0,0,0,0,0,0,0,0,0,0,0,0,0,0,0,-5.4,-5.4,0,-5.4064,-5.4065,-5.4066,-5.3997,-5.3994,-5.3992,-5.3989,-5.4053,-5.4057,-5.4061,0,0,0,0,0,0,0,0,0,0,0,0,0,-5.3811,-5.3815,-5.3999,-5.4,-5.4001,-5.4064,-5.4065,-5.4066,-5.3997,-5.3994,-5.3991,-5.3988,-5.4051,-5.4056,-5.4061,0,0,0,0,0,0,0,0,0,0,0,0,0,-5.3886,-5.3816,-5.3999,-5.3975,-5.3973,-5.4064,-5.4065,-5.4066,-5.3998,-5.3994,-5.399,-5.3987,-5.405,-5.4056,-5.4062,-5.4179,0,0,-5.4081,-5.4084,0,0,0,0,0,0,0,0,-5.3882,-5.3893,-5.3977,-5.3976,-5.3975,-5.4019,-5.4022,-5.4104,-5.3999,-5.3989,-5.3989,-5.3985,-5.4044,-5.4051,-5.4071,-5.4182,-5.4185,-5.4081,-5.4085,-5.4088,-5.409,0,0,0,0,0,0,0,-5.3877,-5.389,-5.4025,-5.3979,-5.3977,-5.3958,-5.3965,-5.4037,-5.4038,-5.3989,-5.3984,-5.3993,-5.4043,-5.4066,-5.4072,-5.4186,-5.4081,-5.4087,-5.4091,-5.4093,-5.4392,-5.4396,0,0,0,0,0,0,-5.3875,-5.3886,-5.4023,-5.4027,-5.3918,-5.3965,-5.3972,-5.4009,-5.4037,-5.4037,-5.3996,-5.399,-5.4057,-5.4065,-5.4074,-5.4212,-5.4088,-5.4094,-5.4097,-5.4388,-5.4393,-5.4398,0,0,0,0,0,0,-5.3871,-5.3888,-5.402,-5.3955,-5.3971,-5.3973,-5.4014,-5.4012,-5.4035,-5.4042,-5.4042,-5.402,-5.4054,-5.4066,-5.4153,-5.4213,-5.4096,-5.4102,-5.4383,-5.439,-5.4396,-5.4489,0,0,0,0,0,0,-5.3866,-5.3887,-5.3933,-5.3957,-5.3974,-5.41,-5.4018,-5.4016,-5.4046,-5.4038,-5.4064,-5.4065,-5.4052,-5.4144,-5.4159,-5.4219,-5.4107,-5.4378,-5.4386,-5.4394,-5.448,-5.4497,-5.4512,0,0,0,0,0,-5.3859,-5.3957,-5.3936,-5.3953,-5.4033,-5.4104,-5.4114,-5.4098,-5.4051,-5.4096,-5.4101,-5.4064,-5.4204,-5.4154,-5.417,-5.4233,-5.4374,-5.4384,-5.4393,-5.4473,-5.4494,-5.4512,0,0,0,0,0,0,-5.394,-5.396,-5.3937,-5.4045,-5.4073,-5.4092,-5.4149,-5.4121,-5.4162,-5.4153,-5.413,-5.4137,-5.4229,-5.424,-5.4183,-5.4346,-5.4281,-5.4294,-5.4336,-5.4356,-5.4372,-5.4367,-5.4112,0,0,0,0,0,-5.3971,-5.4029,-5.4042,-5.4136,-5.4151,-5.4148,-5.4178,-5.4163,-5.4191,-5.4203,-5.4213,-5.4241,-5.429,-5.4324,-5.437,-5.4481,-5.4484,-5.4532,-5.4548,-5.4561,-5.4572,-5.4629,-5.4649,-5.4429,-5.4429,-5.4429,0,0,-5.4035,-5.4052,-5.409,-5.4152,-5.4173,-5.4231,-5.4158,-5.4224,-5.4266,-5.4212,-5.4295,-5.4304,-5.4333,-5.4432,-5.4476,-5.4443,-5.4634,-5.4573,-5.4583,-5.4588,-5.4641,-5.4661,-5.468,-5.4436,-5.4434,-5.4433,0,0,-5.418,-5.42,-5.4279,-5.43,-5.4331,-5.4328,-5.4347,-5.4369,-5.4373,-5.4456,-5.4416,-5.4465,-5.4552,-5.4573,-5.4595,-5.4745,-5.4712,-5.476,-5.4843,-5.4898,-5.4916,-5.4931,-5.4982,-5.5001,-5.4772,-5.4772,-5.4772,0,-5.4255,-5.4342,-5.4323,-5.4391,-5.4418,-5.4372,-5.445,-5.4471,-5.4516,-5.4535,-5.4498,-5.4604,-5.462,-5.4722,-5.4758,-5.4778,-5.4797,-5.4757,-5.4915,-5.493,-5.4944,-5.4992,-5.5012,-5.4778,-5.4777,-5.4776,-5.4776,0,-5.4431,-5.4492,-5.4552,-5.4596,-5.463,-5.4703,-5.4693,-5.4729,-5.471,-5.471,-5.4793,-5.481,-5.4858,-5.4881,-5.4864,-5.498,-5.4958,-5.4919,-5.4853,-5.4971,-5.5016,-5.5035,-5.4786,-5.4784,-5.4782,-5.4781,0,0,-5.4632,-5.4662,-5.4684,-5.4702,-5.4731,-5.4777,-5.4846,-5.4893,-5.4923,-5.4955,-5.501,-5.5083,-5.5046,-5.5071,-5.5055,-5.5104,-5.5218,-5.5058,-5.5058,-5.5086,-5.5344,-5.5373,-5.5395,-5.5196,-5.5199,-5.5202,-5.5341,0,-5.4777,-5.4898,-5.4881,-5.4996,-5.505,-5.5005,-5.5064,-5.5088,-5.5088,-5.5133,-5.5133,-5.5184,-5.5132,-5.5147,-5.5193,-5.5195,-5.5269,-5.5184,-5.5246,-5.5248,-5.524,-5.5419,-5.545,-5.5581,-5.5358,-5.5361,-5.5364,0,-5.4962,-5.5,-5.512,-5.5138,-5.516,-5.5214,-5.5254,-5.5298,-5.5322,-5.5318,-5.5345,-5.5319,-5.5386,-5.5318,-5.5408,-5.535,-5.5374,-5.5378,-5.5383,-5.5388,-5.5313,-5.5427,-5.5622,-5.5641,-5.5392,-5.5389,-5.5387,0,-5.5094,-5.5174,-5.5256,-5.5273,-5.5296,-5.5335,-5.5346,-5.5366,-5.5394,-5.5428,-5.5446,-5.5487,-5.551,-5.5541,-5.5526,-5.5479,-5.5618,-5.555,-5.5616,-5.5616,-5.5647,-5.5645,-5.5847,-5.5664,-5.5664,-5.5663,-5.5663,0,-5.5257,-5.5332,-5.5315,-5.5366,-5.5447,-5.5426,-5.5507,-5.5512,-5.553,-5.5578,-5.5542,-5.5588,-5.5566,-5.561,-5.5599,-5.5673,-5.5684,-5.5682,-5.5678,-5.5685,-5.5685,-5.57,-5.569,-5.5668,-5.5667,-5.5666,-5.5665,0,-5.5419,-5.5411,-5.5496,-5.551,-5.5515,-5.5575,-5.5586,-5.5631,-5.5628,-5.569,-5.5703,-5.5698,-5.5748,-5.5736,-5.579,-5.5782,-5.5876,-5.5861,-5.5868,-5.5864,-5.5929,-5.5923,-5.6148,-5.6175,-5.5975,-5.5977,-5.5979,0,-5.5523,-5.558,-5.5599,-5.5629,-5.5643,-5.5692,-5.572,-5.57,-5.573,-5.576,-5.5801,-5.5848,-5.5884,-5.5965,-5.5965,-5.6005,-5.599,-5.6066,-5.5996,-5.6,-5.5989,-5.5986,-5.599,-5.608,-5.6082,-5.6084,-5.6086,0,-5.5708,-5.5701,-5.5743,-5.5783,-5.5817,-5.5848,-5.5875,-5.5901,-5.5882,-5.5918,-5.5968,-5.5996,-5.605,-5.6096,-5.6133,-5.6142,-5.6111,-5.6107,-5.6124,-5.6132,-5.6133,-5.6132,-5.5905,-5.6102,-5.6101,-5.61,-5.6099,-5.6098,-5.5843,-5.589,-5.591,-5.5958,-5.5975,-5.6,-5.6043,-5.6045,-5.6086,-5.6129,-5.6114,-5.6171,-5.619,-5.6236,-5.625,-5.6292,-5.6264,-5.6289,-5.6295,-5.6301,-5.6309,-5.6127,-5.6299,-5.6299,-5.6298,-5.6298,-5.6297,0,-5.6025,-5.6035,-5.6079,-5.6117,-5.6153,-5.612,-5.6147,-5.6179,-5.623,-5.625,-5.6286,-5.6342,-5.6385,-5.6388,-5.6428,-5.6461,-5.6447,-5.6472,-5.6469,-5.6471,-5.6333,-5.6314,-5.6483,-5.6483,-5.6483,-5.6483,-5.6483,-5.6482,-5.6124,-5.6201,-5.6195,-5.6279,-5.6288,-5.6343,-5.6361,-5.6383,-5.6399,-5.6464,-5.6499,-5.65,-5.6513,-5.6553,-5.659,-5.6589,-5.6605,-5.6636,-5.6629,-5.65,-5.6482,-5.6464,-5.6446,-5.664,-5.664,-5.6764,-5.6765,-5.6766]}]]